GLOBALSTAR M089

Last updated on Sun Jun 21 2026 00:03:18 GMT+0000 (Coordinated Universal Time)

1 37744U 11033F 26171.36397321 -.00000098 00000+0 34532-4 0 9992 2 37744 51.9908 140.1280 0000390 80.3913 75.2933 12.62267262691181
UTC large
Height (km)
Speed (km/s)
/
Latitude / Longitude
Inclination (degrees)
Orbital Period (minutes)
Azimuth
Elevation
Range (km)
Doppler Factor

Next 0 passes for location: London (51.5072 / 0.1276)

No passes found over London.
GLOBALSTAR M089